• In Hungary
  • List of Countries
  • For 7 days
  • Water Temperature
  • Satellite Maps
  • Weather Map
  • News
  • Weather Widgets
  • user-avatar
    Login

    Hourly Weather Loha

    Today, 14 December, Thursday

    Time Temperature Precipitation Wind Pressure Humidity
    00:00 +11°C° 0.1 mm 0 mps 584 mmHg 93%
    01:00 +11°C° 0.1 mm 0 mps 584 mmHg 93%
    02:00 +11°C° 0.1 mm 0 mps 584 mmHg 93%
    03:00 +11°C° 0.1 mm 0 mps 584 mmHg 92%
    04:00 +11°C° 0.1 mm 0 mps 584 mmHg 92%
    05:00 +11°C° 0.1 mm 0 mps 584 mmHg 89%
    06:00 +12°C° 0.1 mm 0 mps 585 mmHg 86%
    07:00 +13°C° 0.1 mm 0 mps 585 mmHg 83%
    08:00 +16°C° 0 mm 1 mps 586 mmHg 74%
    09:00 +19°C° 0 mm 1 mps 587 mmHg 66%
    10:00 +21°C° 0 mm 1 mps 588 mmHg 57%
    11:00 +22°C° 0 mm 1 mps 588 mmHg 54%
    12:00 +23°C° 0 mm 1 mps 588 mmHg 52%
    13:00 +24°C° 0 mm 1 mps 588 mmHg 49%
    14:00 +23°C° 0.1 mm 1 mps 587 mmHg 50%
    15:00 +23°C° 0.1 mm 2 mps 586 mmHg 52%
    16:00 +21°C° 0.1 mm 2 mps 586 mmHg 53%
    17:00 +20°C° 0.1 mm 1 mps 585 mmHg 63%
    18:00 +18°C° 0.1 mm 1 mps 584 mmHg 73%
    19:00 +15°C° 0.1 mm 1 mps 584 mmHg 82%
    20:00 +14°C° 0.1 mm 1 mps 584 mmHg 85%
    21:00 +12°C° 0.1 mm 0 mps 584 mmHg 88%
    22:00 +12°C° 0.1 mm 0 mps 584 mmHg 90%
    23:00 +11°C° 0 mm 0 mps 584 mmHg 90%

    Tomorrow, 15 December, Friday

    Time Temperature Precipitation Wind Pressure Humidity
    00:00 +12°C° 0 mm 1 mps 584 mmHg 90%
    01:00 +12°C° 0 mm 1 mps 584 mmHg 90%
    02:00 +12°C° 0 mm 1 mps 584 mmHg 90%
    03:00 +12°C° 0 mm 1 mps 583 mmHg 90%
    04:00 +12°C° 0 mm 1 mps 583 mmHg 89%
    05:00 +13°C° 0 mm 1 mps 584 mmHg 86%
    06:00 +13°C° 0 mm 1 mps 584 mmHg 83%
    07:00 +14°C° 0 mm 1 mps 585 mmHg 79%
    08:00 +16°C° 0 mm 1 mps 586 mmHg 68%
    09:00 +20°C° 0 mm 1 mps 587 mmHg 57%
    10:00 +23°C° 0 mm 2 mps 589 mmHg 46%
    11:00 +23°C° 0 mm 2 mps 588 mmHg 43%
    12:00 +24°C° 0 mm 1 mps 588 mmHg 40%
    13:00 +25°C° 0 mm 1 mps 588 mmHg 38%
    14:00 +25°C° 0 mm 2 mps 587 mmHg 40%
    15:00 +24°C° 0 mm 2 mps 586 mmHg 42%
    16:00 +22°C° 0 mm 3 mps 586 mmHg 45%
    17:00 +20°C° 0.1 mm 2 mps 585 mmHg 56%
    18:00 +18°C° 0.1 mm 1 mps 584 mmHg 67%
    19:00 +15°C° 0.1 mm 1 mps 583 mmHg 78%
    20:00 +13°C° 0 mm 0 mps 584 mmHg 80%
    21:00 +12°C° 0 mm 0 mps 584 mmHg 82%
    22:00 +12°C° 0 mm 0 mps 584 mmHg 84%
    23:00 +12°C° 0 mm 0 mps 584 mmHg 85%

    Day after tomorrow, 16 December, Saturday

    Time Temperature Precipitation Wind Pressure Humidity
    00:00 +11°C° 0 mm 0 mps 584 mmHg 86%
    01:00 +11°C° 0 mm 0 mps 584 mmHg 87%
    02:00 +11°C° 0 mm 0 mps 583 mmHg 88%
    03:00 +11°C° 0 mm 0 mps 583 mmHg 89%
    04:00 +10°C° 0 mm 0 mps 582 mmHg 90%
    05:00 +11°C° 0 mm 0 mps 583 mmHg 86%
    06:00 +12°C° 0 mm 0 mps 584 mmHg 83%
    07:00 +13°C° 0 mm 1 mps 584 mmHg 79%
    08:00 +16°C° 0 mm 1 mps 586 mmHg 67%
    09:00 +20°C° 0 mm 1 mps 587 mmHg 56%
    10:00 +23°C° 0 mm 1 mps 589 mmHg 44%
    11:00 +24°C° 0 mm 2 mps 588 mmHg 42%
    12:00 +25°C° 0 mm 2 mps 588 mmHg 39%
    13:00 +26°C° 0 mm 2 mps 588 mmHg 37%
    14:00 +24°C° 0.1 mm 2 mps 587 mmHg 43%
    15:00 +23°C° 0.1 mm 2 mps 586 mmHg 50%
    16:00 +21°C° 0.1 mm 2 mps 585 mmHg 56%
    17:00 +19°C° 0.2 mm 2 mps 584 mmHg 66%
    18:00 +18°C° 0.2 mm 1 mps 584 mmHg 77%
    19:00 +15°C° 0.2 mm 1 mps 583 mmHg 88%
    20:00 +14°C° 0.1 mm 1 mps 583 mmHg 90%
    21:00 +13°C° 0.1 mm 0 mps 584 mmHg 92%
    22:00 +12°C° 0.1 mm 0 mps 584 mmHg 95%
    23:00 +12°C° 0.1 mm 0 mps 584 mmHg 95%

    17 December, Sunday

    Time Temperature Precipitation Wind Pressure Humidity
    00:00 +12°C° 0.1 mm 0 mps 584 mmHg 95%
    01:00 +12°C° 0.1 mm 0 mps 583 mmHg 95%
    02:00 +12°C° 0 mm 0 mps 583 mmHg 95%
    03:00 +11°C° 0 mm 0 mps 583 mmHg 94%
    04:00 +11°C° 0 mm 0 mps 582 mmHg 94%
    05:00 +12°C° 0 mm 0 mps 583 mmHg 91%
    06:00 +12°C° 0 mm 0 mps 583 mmHg 88%
    07:00 +13°C° 0 mm 0 mps 584 mmHg 84%
    08:00 +16°C° 0 mm 1 mps 585 mmHg 73%
    09:00 +19°C° 0 mm 1 mps 587 mmHg 63%
    10:00 +22°C° 0 mm 1 mps 588 mmHg 52%
    11:00 +23°C° 0 mm 1 mps 588 mmHg 49%
    12:00 +23°C° 0 mm 2 mps 587 mmHg 47%
    13:00 +24°C° 0 mm 2 mps 587 mmHg 44%
    14:00 +23°C° 0.2 mm 2 mps 586 mmHg 49%
    15:00 +21°C° 0.2 mm 2 mps 585 mmHg 55%
    16:00 +20°C° 0.2 mm 2 mps 584 mmHg 60%
    17:00 +18°C° 0.2 mm 2 mps 584 mmHg 69%
    18:00 +18°C° 0.2 mm 1 mps 584 mmHg 78%
    19:00 +15°C° 0.2 mm 1 mps 583 mmHg 87%
    20:00 +14°C° 0.1 mm 1 mps 583 mmHg 89%
    21:00 +13°C° 0.1 mm 0 mps 584 mmHg 92%
    22:00 +12°C° 0.1 mm 0 mps 584 mmHg 94%
    23:00 +12°C° 0.1 mm 0 mps 584 mmHg 94%

    18 December, Monday

    Time Temperature Precipitation Wind Pressure Humidity
    00:00 +12°C° 0.1 mm 0 mps 583 mmHg 94%
    01:00 +11°C° 0.1 mm 0 mps 583 mmHg 94%
    02:00 +11°C° 0 mm 0 mps 583 mmHg 93%
    03:00 +11°C° 0 mm 0 mps 582 mmHg 93%
    04:00 +11°C° 0 mm 0 mps 582 mmHg 92%
    05:00 +11°C° 0 mm 0 mps 583 mmHg 90%
    06:00 +13°C° 0 mm 1 mps 583 mmHg 87%
    07:00 +13°C° 0 mm 1 mps 584 mmHg 84%
    08:00 +14°C° 0.1 mm 1 mps 585 mmHg 80%
    09:00 +16°C° 0.1 mm 1 mps 585 mmHg 75%
    10:00 +18°C° 0.1 mm 1 mps 586 mmHg 70%
    11:00 +20°C° 0 mm 1 mps 586 mmHg 62%
    12:00 +22°C° 0 mm 1 mps 587 mmHg 53%
    13:00 +24°C° 0 mm 1 mps 587 mmHg 44%
    14:00 +23°C° 0 mm 2 mps 586 mmHg 46%
    15:00 +23°C° 0 mm 2 mps 586 mmHg 48%
    16:00 +21°C° 0 mm 2 mps 585 mmHg 51%
    17:00 +19°C° 0.1 mm 2 mps 584 mmHg 60%
    18:00 +18°C° 0.1 mm 1 mps 584 mmHg 69%
    19:00 +14°C° 0.1 mm 1 mps 584 mmHg 78%
    20:00 +14°C° 0 mm 1 mps 584 mmHg 81%
    21:00 +12°C° 0 mm 0 mps 584 mmHg 83%
    22:00 +11°C° 0 mm 0 mps 584 mmHg 86%
    23:00 +11°C° 0 mm 0 mps 584 mmHg 86%

    19 December, Tuesday

    Time Temperature Precipitation Wind Pressure Humidity
    00:00 +12°C° 0 mm 1 mps 584 mmHg 85%
    01:00 +12°C° 0 mm 1 mps 583 mmHg 85%
    02:00 +12°C° 0 mm 1 mps 583 mmHg 86%
    03:00 +11°C° 0 mm 1 mps 583 mmHg 86%
    04:00 +11°C° 0 mm 1 mps 582 mmHg 87%
    05:00 +12°C° 0 mm 1 mps 583 mmHg 84%
    06:00 +12°C° 0 mm 1 mps 584 mmHg 81%
    07:00 +13°C° 0 mm 1 mps 584 mmHg 78%
    08:00 +16°C° 0 mm 1 mps 586 mmHg 68%
    09:00 +19°C° 0 mm 1 mps 587 mmHg 58%
    10:00 +22°C° 0 mm 1 mps 588 mmHg 48%
    11:00 +22°C° 0 mm 1 mps 588 mmHg 47%
    12:00 +21°C° 0 mm 2 mps 587 mmHg 47%
    13:00 +23°C° 0 mm 2 mps 587 mmHg 47%
    14:00 +21°C° 0.1 mm 2 mps 586 mmHg 49%
    15:00 +21°C° 0.1 mm 2 mps 585 mmHg 52%
    16:00 +20°C° 0.1 mm 2 mps 585 mmHg 54%
    17:00 +18°C° 0.1 mm 2 mps 584 mmHg 63%
    18:00 +18°C° 0.1 mm 1 mps 584 mmHg 72%
    19:00 +15°C° 0.1 mm 1 mps 584 mmHg 81%
    20:00 +13°C° 0.1 mm 0 mps 584 mmHg 84%
    21:00 +13°C° 0.1 mm 0 mps 584 mmHg 86%
    22:00 +12°C° 0.1 mm 0 mps 585 mmHg 89%
    23:00 +12°C° 0.1 mm 0 mps 584 mmHg 89%
    Show more